Weather Service Report


835 
ASUS45 KTFX 280010
RWRMT 
MONTANA REGIONAL WEATHER ROUNDUP
NATIONAL WEATHER SERVICE GREAT FALLS MT
600 PM MDT TUE JUN 27 2017

NOTE: "FAIR" INDICATES FEW OR NO CLOUDS BELOW 12000 FEET WITH NO
SIGNIFICANT WEATHER AND/OR OBSTRUCTIONS TO VISIBILITY.

MTZ001>007-043-280100-
WEST OF THE DIVIDE
  
CITY           SKY/WX    TMP DP  RH WIND       PRES   REMARKS
KALISPELL      SUNNY     79  38  22 W12G21    29.78S                  
MISSOULA       SUNNY     82  32  16 W13       29.79F                  
BUTTE          PTSUNNY   71  43  36 NW14      29.93F                  
MULLAN PASS    MOSUNNY   64  42  44 VRB6      30.00S                  
ANACONDA         N/A     73  39  29 NW8G16    29.89S                  
DEER LODGE       N/A     75  43  31 W10G21    29.89S                  
EUREKA           N/A     79  41  25 CALM      29.76F                  
HAMILTON         N/A     79  43  27 W3        29.85R                  
$$

MTZ008-052>055-280100-
SOUTHWEST MONTANA
  
CITY           SKY/WX    TMP DP  RH WIND       PRES   REMARKS
BOZEMAN        LGT RAIN  62  55  77 NW6       29.92R                  
DILLON         PTSUNNY   64  46  52 SW15      29.94R                  
W YELLOWSTONE  LGT RAIN  52  48  87 VRB8G20   30.07R                  
ENNIS          MOSUNNY   68  39  34 CALM      29.99S                  
THREE FORKS      N/A     68  55  62 SE6       29.89F                  
$$

MTZ009-010-012-014-046-048-049-054-280100-
EAST SLOPES AND CENTRAL MONTANA
  
CITY           SKY/WX    TMP DP  RH WIND       PRES   REMARKS
CUT BANK       SUNNY     77  36  22 W18       29.76F                  
GREAT FALLS    PTSUNNY   78  50  37 E14       29.77S                  
MALMSTROM AFB  PTSUNNY   75  47  37 E9        29.77F                  
HELENA         PTSUNNY   83  39  21 W16G23    29.79F                  
CHOTEAU          N/A     79  32  18 W14G22    29.79S                  
$$

MTZ011-013-016-021-045-047-050-051-280100-
NORTH CENTRAL MONTANA
  
CITY           SKY/WX    TMP DP  RH WIND       PRES   REMARKS
HAVRE          MOSUNNY   81  42  25 NW17      29.72S                  
LEWISTOWN      CLOUDY    70  49  47 NW9       29.82S                  
N BAR RANCH      N/A     70  48  46 NW12      29.85S                  
CHINOOK          N/A     81  45  28 NW14      29.70S                  
FORT BENTON      N/A     82  43  24 MISG      29.75F                  
$$

MTZ017>020-022>027-061-062-280100-
NORTHEAST MONTANA
  
CITY           SKY/WX    TMP DP  RH WIND       PRES   REMARKS
GLASGOW        PTSUNNY   80  50  34 NW23G31   29.64R                  
JORDAN           N/A     66  61  84 VRB3      29.71S                  
SIDNEY         CLOUDY    82  52  35 N16       29.57R                  
WOLF POINT     PTSUNNY   86  49  27 NW20      29.60R                  
MALTA          MOSUNNY   81  52  36 N14G21    29.68R                  
PLENTYWOOD       N/A     75  55  50 NW15G24   29.60R                  
POPLAR           N/A     84  54  34 NW15G22   29.59R                  
$$

MTZ028>42-056>058-280100-
SOUTHCENTRAL AND SOUTHEAST MONTANA
  
CITY           SKY/WX    TMP DP  RH WIND       PRES   REMARKS
BAKER          CLOUDY    82  47  29 N16       29.64R                  
BILLINGS       CLOUDY    74  51  44 VRB6      29.80S THUNDER          
LIVINGSTON     MOSUNNY   71  45  39 W21G31    29.87S                  
MILES CITY     PTSUNNY   79  48  33 W10       29.67R                  
BIG TIMBER     MOSUNNY   72  45  37 W16       29.87S                  
ROUNDUP          N/A     74  43  32 NW15      29.72F                  
$$

REGIONAL REPORTS...DAKOTAS
  
CITY           SKY/WX    TMP DP  RH WIND       PRES   REMARKS
WILLISTON      CLOUDY    80  53  39 N17       29.57R                  
MINOT          CLOUDY    82  58  43 SE10      29.52S                  
DICKINSON      CLOUDY    85  43  22 NW18G30   29.53S                  
BEACH            N/A     79  50  36 NW6       29.64S                  
CROSBY           N/A     73  55  53 N14       29.58R                  
TIOGA            N/A     75  54  46 N26G32    29.58R                  
WATFORD CITY     N/A     79  54  41 N16G25    29.56R                  
BISMARCK       PTSUNNY   85  62  46 SE13      29.49F                  
GRAND FORKS    MOSUNNY   76  48  37 S15       29.66F                  
FARGO          CLOUDY    75  48  38 SE15G25   29.67F                  
BUFFALO SD       N/A     89  45  21 NW25G31   29.56R                  
RAPID CITY     TSTM      63  56  78 W21G29    29.74R                  
$$

REGIONAL REPORTS...WYOMING/IDAHO/WASHINGTON
  
CITY           SKY/WX    TMP DP  RH WIND       PRES   REMARKS
GILLETTE       LGT RAIN  60  53  77 NW23G32   29.81S                  
SHERIDAN       CLOUDY    75  50  41 NW8       29.79F                  
BUFFALO WY     CLOUDY    60  52  74 S3        29.86F                  
CODY           CLOUDY    67  41  38 W13G23    29.93S                  
YELLOWSTONE LA   N/A     51  46  83 CALM      30.12F                  
IDAHO FALLS    MOSUNNY   79  45  29 S20G26    29.88F                  
SALMON         CLOUDY    66  46  48 E8G23     29.92F                  
BOISE          SUNNY     89  41  18 W13       29.82F                  
SPOKANE        PTSUNNY   80  32  17 SW5       29.83F                  
$$

REGIONAL REPORTS...ALBERTA
  
CITY           SKY/WX    TMP DP  RH WIND       PRES   REMARKS
EDMONTON       RAIN      55  50  82 NW16G32   29.71R                  
CALGARY        MOSUNNY   70  45  40 E16       29.75R THUNDER          
LETHBRIDGE     MOSUNNY   77  50  38 E7        29.69F                  
MEDICINE HAT   MOSUNNY   77  43  29 VRB6      29.70F                  
WATERTON GATE    N/A     72  34  25 W17G24      N/A                   
CARDSTON         N/A     77  32  19 W13G21      N/A                   
MILK RIVER       N/A     77  48  36 S6          N/A                   
$$

REGIONAL REPORTS...SASKATCHEWAN
  
CITY           SKY/WX    TMP DP  RH WIND       PRES   REMARKS
SWIFT CURRENT  MOSUNNY   70  45  40 NW22      29.69R                  
REGINA         MOSUNNY   70  61  73 NW23G29   29.58S                  
SASKATOON      MOSUNNY   75  43  31 W22G29    29.59R                  
VAL MARIE        N/A     77  45  31 N20G28      N/A                   
ROCKGLEN         N/A     70  52  52 NW18G25     N/A                   
ASSINIBOIA       N/A     64  45  48 NW17        N/A                   
$$
  

Return to Home page


Western Regional Climate Center, wrcc@dri.edu